User: anonymous   Login
Location: Unspecified
(0.0000°N, 0.0000°E)
Time: 02:56:45
(UTC+00:00)
Language:

ATS 5 - Orbit

View from above orbital plane
View from above orbital plane
View from above satellite
View from above satellite

Ground track
Ground track

The orbit data is extracted from the following two-line orbital elements,

1  4068U 69069A   18171.43729997 +.00000100 +00000-0 +00000-0 0  9997
2  4068 007.1190 300.5050 0005467 311.5735 228.4059 00.99488252017283
Epoch (UTC): 20 June 2018 10:29:42
Eccentricity: 0.0005467
inclination: 7.1190°
perigee height: 35984 km
apogee height: 36030 km
right ascension of ascending node: 300.5050°
argument of perigee: 311.5735°
revolutions per day: 0.99488252
mean anomaly at epoch: 228.4059°
orbit number at epoch: 1728

The dashed part of the orbit path shows where the satellite is in the earth's shadow,  

DLR